Torna al catalogo

STARLINK-32439

AttivoComunicazioniVLEO
NORAD 61665·PAYLOAD·🇺🇸 United States

Lanciato Oct 26, 2024 da Cape Canaveral Space Force Station

Loading…

Prossimi Passaggi (prossime 24 ore)

TLE

AggiornatoSource: CelesTrak SupGP

Epoca: Sep 15, 2026, 03:18 UTC

1 61665C 24193E   26258.13798611  .00006569  00000+0  19403-3 0  2585
2 61665  53.1582 290.5686 0001440  90.0947  89.8157 15.34393358    17

Traccia STARLINK-32439 in tempo reale con AllMySat

Download on the App Store